Blue Mountain Lake, NY (12812)

10:29 PM EDT on September 01, 2015 (GMT -0400)
Plumley's Garage | | Change Station
CLOSE
Current Station
Personal Weather Station
Location: Long Lake, NY
Elevation: 1650 ft
Nearby Weather Stations

Elev 1650 ft 43.97 °N, 74.42 °W | Updated 6 seconds ago

Clear
Clear
68.9 °F
Feels Like 68.9 °F
N
0.0
Wind Variable Wind from ENE
Gusts 0.0 mph

Today
High -- | Low -- °F
--% Chance of Precip.
Yesterday
High -- | Low -- °F
Precip. -- in
6:20 AM 7:33 PM
Waning Gibbous, 84% visible
Pressure 30.07 in
Visibility 8.0 miles
Clouds Clear
Dew Point 59 °F
Humidity 71%
Rainfall 0.00 in
Snow Depth Not available.
UV 0 out of 12
Pollen 9.00 out of 12
Air Quality Not available.
Flu Activity Not available.
METAR KSLK 020151Z AUTO 00000KT 8SM CLR 17/16 A3008 RMK AO2 SLP181 T01720161
Pressure 30.07 in
Visibility 8.0 miles
Clouds Clear
Dew Point 59 °F
Humidity 71%
Rainfall 0.00 in
Snow Depth Not available.
UV 0 out of 12
Pollen 9.00 out of 12
Air Quality Not available.
Flu Activity Not available.
METAR KSLK 020151Z AUTO 00000KT 8SM CLR 17/16 A3008 RMK AO2 SLP181 T01720161

10-Day Weather Forecast

×

Almanac

Astronomy

Sep. 01, 2015 Rise Set
Actual Time
Civil Twilight
Nautical Twilight
Astronomical Twilight
Moon
Length of Visible Light
Length of Day
Tomorrow will be .
, % of the Moon is Illuminated

Today's Extremes

State Highs State Lows

Community

WunderPhotos

Upload Photos

1,851,679 photos uploaded!

WunderBlogs® & News

Nearby

Air Quality

  Air Quality AQ Index Pollutant
Not available.

Snow Depth

Station Depth Elevation

Earthquake Activity

City Distance Mag. Time & Date
Minimum magnitude displayed is 2.5.

Coastal Water Temperatures

Place Temperature

Stations

Nearby Weather Stations

Station Location Temp. Windchill Dew Point Humidity Wind Precip. Elev Updated Type